Location: *
(44.3925°N, 5.4708°E)
Time: 08:15:48
(UTC+00:00)

Cosmos 407 Rocket - Pass Details

Date: 18 September 2019
Orbit: 744 x 786 km, 74.0° (Epoch: 22 October)

Event Time Altitude Azimuth Distance (km) Brightness Sun altitude
Rises 19:52:25 0° 335° (NNW) 3,202 7.5 -22.9°
Reaches altitude 10° 19:54:49 10° 332° (NNW) 2,270 6.7 -23.3°
Maximum altitude 19:59:51 58° 254° (WSW) 868 3.9 -24.1°
Enters shadow 20:01:45 36° 193° (SSW) 1,175 4.3 -24.4°
